ATLAS 5 CENTAUR DEB, 52828

Orbit data source: Space-Track

ATLAS 5 CENTAUR DEB, 52828 is space debris in HEO originally from a launch on Wed, 17 Sep 2014 UTC launched from the Air Force Eastern Test Range (AFETR). Debris objects in space refer to the collection of defunct objects orbiting the Earth. Examples of debris include non-operational satellites, rocket bodies, and fragments generated from explosions, collisions, or faulty payload assembly.

Loading next visibility...
Identifier
52828, 2014-055DL
Orbit
HEO
Country
Flag of USUS
Related business
Flag of USUnited Launch Alliance/Lockheed Martin (US)
Manufacturer
Unknown
Mission
Spacecraft
Bus & Motor
Unknown
Mass
Unknown
Launch date (UTC)
2014-09-17 (11 years ago)
Launch vehicle
Unknown
Launch site
Air Force Eastern Test Range (AFETR)
Object type
Payload
Rocket body
Debris
Shape & HBR
Unknown shape, 1.1 m
Radar Cross Section
RCS unknown

Expand to show TLE details & history
Last TLE update: 2 weeks ago

TLE from 2 weeks ago
0 ATLAS 5 CENTAUR DEB
1 52828U 14055DL  26049.42858811  .00000014  00000-0  00000+0 0  9992
2 52828  19.3157 181.4353 4717995  99.2513 315.0655  1.81209432 24910
Epoch: 2026-02-18T10:17Z
TLE epoch observation values (Epoch: 2026-02-18T10:17:10.012Z)
Latitude
-0.00001°
Longitude
-121.36445°
Altitude
17,571.079 km
Speed
4.389 km/s
True Right ascension
12h 05m 17s
True Declination
0° 00' 00"
Sunlit
Object was in daylight at epoch
Visualization orbit readout
Latitude
Unknown
Longitude
Unknown
Altitude
Unknown
Speed
Unknown
Apparent Right ascension
Unknown
Apparent Declination
Unknown
Sunlit
N/A
Visualization observer readout
Local Sidereal Time
09:20:22
Azimuth
Unknown
Elevation
Unknown
Doppler factor
Unknown
Orbital elements
Apogee altitude
35,452.304 km
Perigee altitude
8,634.003 km
Semi-major axis
28,421.29 km
Eccentricity
0.4718
Inclination
19.3157°
RAAN
181.4353°
Arg. of periapsis
99.2513°
True anomaly
260.67751°
Mean anomaly
315.0655°
Eccentric anomaly
289.59963°
Mean motion
0.45298 °/min
Orbital period
794.74 mins
BSTAR
0
Loading maneuver chart data...
Computing Atmospheric mass density...

Documentation

Showing up to 5 results
|